QPF
0.00 0.00 0.01 0.02 0.03 0.03 0.03 0.05 0.05 0.06 0.09 0.07 0.07 0.08 0.06 0.05 0.05 0.05 0.05 0.07 0.05 0.04 0.07 0.06 0.08 0.08 0.08 0.08 0.09 0.10 0.09 0.07 0.07 0.08 0.09 0.07 0.03 0.04 0.05 0.04 0.05 0.04 0.02
0.00 0.01 0.01 0.02 0.02 0.04 0.03 0.05 0.06 0.09 0.13 0.10 0.08 0.09 0.07 0.05 0.04 0.03 0.03 0.05 0.04 0.04 0.05 0.08 0.09 0.08 0.09 0.08 0.09 0.10 0.11 0.08 0.07 0.08 0.08 0.07 0.07 0.05 0.02 0.03 0.04 0.04 0.03
0.00 0.01 0.01 0.02 0.04 0.03 0.03 0.05 0.07 0.10 0.13 0.11 0.09 0.09 0.07 0.05 0.03 0.03 0.04 0.04 0.03 0.03 0.05 0.08 0.08 0.08 0.06 0.09 0.12 0.11 0.12 0.10 0.08 0.07 0.08 0.08 0.10 0.08 0.05 0.03 0.03 0.03 0.05
0.00 0.01 0.01 0.03 0.03 0.03 0.03 0.06 0.09 0.12 0.11 0.12 0.12 0.09 0.07 0.05 0.03 0.03 0.04 0.06 0.05 0.04 0.04 0.06 0.08 0.10 0.08 0.10 0.09 0.08 0.12 0.12 0.10 0.08 0.08 0.08 0.11 0.11 0.08 0.04 0.02 0.03 0.04
0.00 0.01 0.01 0.01 0.01 0.02 0.02 0.03 0.05 0.11 0.10 0.07 0.07 0.09 0.08 0.08 0.05 0.03 0.04 0.06 0.06 0.05 0.05 0.08 0.10 0.12 0.10 0.09 0.09 0.11 0.13 0.12 0.11 0.09 0.09 0.10 0.11 0.10 0.11 0.08 0.05 0.04 0.03
0.00 0.00 0.00 0.01 0.01 0.01 0.01 0.01 0.02 0.05 0.05 0.04 0.03 0.05 0.08 0.10 0.07 0.04 0.05 0.05 0.06 0.07 0.08 0.08 0.09 0.10 0.10 0.10 0.10 0.09 0.10 0.11 0.12 0.11 0.10 0.10 0.11 0.12 0.13 0.11 0.08 0.06 0.04
0.00 0.00 0.00 0.00 0.01 0.01 0.00 0.01 0.01 0.02 0.02 0.03 0.04 0.04 0.06 0.09 0.06 0.05 0.05 0.06 0.07 0.08 0.10 0.07 0.09 0.08 0.08 0.08 0.09 0.09 0.09 0.11 0.12 0.12 0.10 0.10 0.11 0.14 0.14 0.12 0.09 0.08 0.06
0.00 0.00 0.00 0.00 0.00 0.00 0.01 0.01 0.01 0.02 0.02 0.03 0.04 0.04 0.04 0.05 0.04 0.05 0.05 0.06 0.06 0.06 0.07 0.07 0.07 0.08 0.08 0.07 0.08 0.07 0.07 0.08 0.09 0.08 0.12 0.12 0.11 0.12 0.12 0.12 0.12 0.11 0.08
0.00 0.00 0.00 0.00 0.00 0.00 0.00 0.01 0.01 0.02 0.02 0.03 0.03 0.04 0.04 0.03 0.04 0.05 0.07 0.06 0.05 0.06 0.06 0.06 0.05 0.06 0.06 0.07 0.08 0.06 0.05 0.06 0.07 0.10 0.14 0.12 0.08 0.07 0.09 0.10 0.12 0.14 0.12
0.00 0.00 0.00 0.00 0.00 0.00 0.00 0.00 0.01 0.01 0.02 0.03 0.02 0.02 0.02 0.02 0.04 0.06 0.07 0.06 0.05 0.05 0.06 0.06 0.07 0.07 0.07 0.07 0.09 0.08 0.06 0.06 0.08 0.10 0.10 0.09 0.06 0.06 0.07 0.08 0.10 0.13 0.13
0.00 0.00 0.00 0.00 0.00 0.00 0.00 0.00 0.00 0.01 0.01 0.02 0.01 0.01 0.01 0.02 0.03 0.04 0.04 0.04 0.04 0.05 0.05 0.06 0.06 0.06 0.06 0.07 0.09 0.09 0.08 0.06 0.07 0.08 0.10 0.10 0.09 0.07 0.07 0.08 0.09 0.10 0.12
0.00 0.00 0.00 0.00 0.00 0.00 0.00 0.00 0.00 0.00 0.00 0.01 0.01 0.01 0.01 0.02 0.03 0.03 0.02 0.03 0.03 0.04 0.04 0.03 0.04 0.04 0.05 0.07 0.07 0.09 0.10 0.09 0.08 0.08 0.08 0.08 0.09 0.09 0.08 0.08 0.08 0.09 0.10
0.00 0.00 0.00 0.00 0.00 0.00 0.00 0.00 0.00 0.00 0.00 0.00 0.01 0.01 0.01 0.01 0.02 0.03 0.03 0.03 0.04 0.04 0.03 0.02 0.03 0.04 0.05 0.05 0.05 0.06 0.06 0.05 0.05 0.05 0.06 0.07 0.10 0.11 0.11 0.11 0.11 0.10 0.10
0.00 0.00 0.00 0.00 0.00 0.00 0.00 0.01 0.00 0.00 0.01 0.01 0.01 0.01 0.01 0.01 0.02 0.04 0.03 0.04 0.03 0.03 0.03 0.03 0.02 0.03 0.03 0.03 0.03 0.03 0.03 0.03 0.04 0.04 0.05 0.05 0.06 0.08 0.09 0.08 0.08 0.08 0.09
0.00 0.00 0.00 0.00 0.00 0.00 0.01 0.00 0.00 0.01 0.01 0.02 0.02 0.01 0.02 0.01 0.02 0.03 0.03 0.04 0.03 0.03 0.03 0.03 0.04 0.04 0.04 0.04 0.04 0.03 0.03 0.04 0.04 0.04 0.05 0.06 0.05 0.04 0.04 0.04 0.04 0.04 0.05
0.00 0.00 0.00 0.01 0.01 0.01 0.01 0.01 0.00 0.01 0.02 0.03 0.02 0.01 0.02 0.01 0.01 0.02 0.02 0.02 0.02 0.03 0.04 0.05 0.06 0.06 0.05 0.04 0.04 0.03 0.04 0.04 0.04 0.04 0.04 0.03 0.04 0.03 0.03 0.03 0.03 0.03 0.04
0.00 0.01 0.01 0.02 0.03 0.03 0.02 0.01 0.01 0.01 0.03 0.04 0.03 0.02 0.02 0.02 0.02 0.02 0.02 0.02 0.03 0.03 0.06 0.08 0.08 0.09 0.08 0.06 0.04 0.03 0.04 0.05 0.04 0.04 0.03 0.02 0.02 0.03 0.03 0.04 0.04 0.04 0.04
0.01 0.01 0.01 0.02 0.02 0.02 0.02 0.01 0.01 0.03 0.05 0.04 0.02 0.03 0.03 0.03 0.03 0.04 0.04 0.04 0.03 0.03 0.03 0.05 0.06 0.06 0.07 0.07 0.06 0.05 0.04 0.04 0.04 0.04 0.03 0.03 0.03 0.03 0.02 0.02 0.02 0.02 0.02
0.02 0.02 0.02 0.02 0.02 0.02 0.01 0.02 0.03 0.03 0.03 0.02 0.03 0.03 0.04 0.03 0.03 0.04 0.05 0.04 0.04 0.03 0.03 0.04 0.03 0.03 0.03 0.04 0.03 0.02 0.02 0.02 0.02 0.02 0.02 0.02 0.03 0.02 0.02 0.01 0.01 0.01 0.01
0.01 0.02 0.02 0.02 0.02 0.03 0.02 0.03 0.04 0.03 0.02 0.01 0.01 0.02 0.03 0.03 0.03 0.04 0.04 0.03 0.03 0.03 0.02 0.02 0.03 0.03 0.02 0.02 0.02 0.02 0.01 0.01 0.02 0.02 0.03 0.03 0.03 0.02 0.02 0.01 0.01 0.01 0.01
0.01 0.01 0.02 0.02 0.02 0.03 0.02 0.02 0.03 0.03 0.02 0.02 0.02 0.02 0.02 0.02 0.02 0.02 0.01 0.01 0.01 0.01 0.01 0.02 0.03 0.03 0.02 0.02 0.02 0.02 0.01 0.01 0.01 0.02 0.02 0.02 0.02 0.02 0.01 0.01 0.01 0.01 0.01
0.02 0.02 0.02 0.02 0.03 0.03 0.03 0.03 0.04 0.05 0.05 0.04 0.05 0.05 0.04 0.03 0.02 0.02 0.01 0.01 0.01 0.02 0.02 0.01 0.01 0.02 0.01 0.01 0.02 0.02 0.02 0.02 0.02 0.02 0.02 0.01 0.01 0.01 0.01 0.01 0.01 0.01 0.01
0.04 0.04 0.04 0.03 0.03 0.03 0.03 0.06 0.08 0.09 0.07 0.06 0.06 0.05 0.04 0.03 0.02 0.02 0.01 0.02 0.02 0.02 0.02 0.01 0.01 0.02 0.02 0.02 0.02 0.02 0.02 0.02 0.02 0.02 0.02 0.02 0.02 0.01 0.01 0.01 0.01 0.01 0.01
0.06 0.05 0.05 0.04 0.03 0.03 0.04 0.06 0.08 0.08 0.05 0.05 0.05 0.04 0.03 0.03 0.02 0.01 0.01 0.02 0.02 0.02 0.02 0.02 0.02 0.02 0.03 0.03 0.02 0.02 0.01 0.01 0.01 0.01 0.01 0.01 0.01 0.01 0.01 0.02 0.02 0.02 0.03
0.06 0.04 0.04 0.03 0.03 0.02 0.03 0.03 0.04 0.04 0.04 0.06 0.07 0.07 0.06 0.05 0.03 0.03 0.02 0.02 0.02 0.03 0.03 0.03 0.03 0.02 0.01 0.02 0.02 0.02 0.02 0.02 0.02 0.02 0.02 0.01 0.01 0.02 0.03 0.03 0.03 0.04 0.04
0.05 0.04 0.03 0.03 0.03 0.02 0.02 0.03 0.04 0.06 0.07 0.09 0.10 0.09 0.07 0.07 0.06 0.06 0.05 0.05 0.05 0.05 0.05 0.04 0.03 0.02 0.02 0.02 0.02 0.02 0.02 0.02 0.02 0.02 0.01 0.01 0.01 0.01 0.02 0.02 0.02 0.01 0.01
MSLP
1012.90 1013.20 1013.48 1013.75 1014.02 1014.30 1014.59 1014.90 1015.23 1015.54 1015.82 1016.05 1016.21 1016.31 1016.35 1016.35 1016.35 1016.37 1016.44 1016.55 1016.71 1016.91 1017.12 1017.33 1017.53 1017.69 1017.83 1017.96 1018.08 1018.21 1018.35 1018.49 1018.63 1018.74 1018.83 1018.86 1018.83 1018.76 1018.64 1018.50 1018.38 1018.29 1018.25
1012.75 1013.10 1013.42 1013.70 1013.97 1014.22 1014.48 1014.75 1015.05 1015.36 1015.65 1015.92 1016.13 1016.27 1016.34 1016.36 1016.35 1016.35 1016.37 1016.44 1016.56 1016.74 1016.95 1017.17 1017.39 1017.59 1017.76 1017.91 1018.04 1018.17 1018.29 1018.42 1018.56 1018.67 1018.76 1018.80 1018.79 1018.71 1018.57 1018.39 1018.19 1018.01 1017.87
1012.50 1012.90 1013.26 1013.58 1013.85 1014.09 1014.33 1014.58 1014.87 1015.17 1015.49 1015.79 1016.05 1016.23 1016.35 1016.39 1016.38 1016.35 1016.34 1016.37 1016.46 1016.62 1016.83 1017.07 1017.32 1017.56 1017.76 1017.92 1018.06 1018.17 1018.28 1018.38 1018.49 1018.60 1018.69 1018.75 1018.75 1018.69 1018.56 1018.36 1018.12 1017.88 1017.65
1012.13 1012.59 1013.01 1013.37 1013.66 1013.91 1014.14 1014.38 1014.65 1014.96 1015.30 1015.64 1015.94 1016.17 1016.32 1016.39 1016.39 1016.36 1016.33 1016.34 1016.41 1016.57 1016.79 1017.05 1017.34 1017.60 1017.83 1018.01 1018.14 1018.23 1018.30 1018.37 1018.45 1018.54 1018.63 1018.71 1018.74 1018.72 1018.62 1018.43 1018.18 1017.89 1017.59
1011.69 1012.21 1012.68 1013.09 1013.41 1013.67 1013.89 1014.12 1014.39 1014.70 1015.05 1015.42 1015.76 1016.04 1016.24 1016.34 1016.36 1016.34 1016.31 1016.31 1016.39 1016.55 1016.78 1017.08 1017.39 1017.69 1017.94 1018.13 1018.24 1018.31 1018.34 1018.36 1018.40 1018.47 1018.57 1018.67 1018.75 1018.78 1018.73 1018.59 1018.35 1018.03 1017.67
1011.23 1011.80 1012.33 1012.78 1013.13 1013.40 1013.62 1013.84 1014.09 1014.39 1014.75 1015.13 1015.50 1015.82 1016.05 1016.19 1016.25 1016.25 1016.23 1016.25 1016.34 1016.51 1016.77 1017.09 1017.43 1017.75 1018.01 1018.20 1018.30 1018.33 1018.33 1018.31 1018.33 1018.38 1018.49 1018.62 1018.76 1018.85 1018.87 1018.77 1018.56 1018.24 1017.84
1010.82 1011.42 1011.99 1012.47 1012.85 1013.13 1013.34 1013.54 1013.77 1014.06 1014.40 1014.78 1015.16 1015.51 1015.78 1015.95 1016.04 1016.06 1016.07 1016.11 1016.22 1016.41 1016.68 1017.02 1017.38 1017.71 1017.98 1018.17 1018.25 1018.26 1018.23 1018.18 1018.18 1018.24 1018.36 1018.53 1018.73 1018.89 1018.98 1018.95 1018.78 1018.47 1018.04
1010.49 1011.11 1011.71 1012.22 1012.62 1012.90 1013.10 1013.28 1013.48 1013.74 1014.06 1014.42 1014.80 1015.15 1015.43 1015.63 1015.74 1015.79 1015.83 1015.89 1016.01 1016.21 1016.50 1016.84 1017.21 1017.55 1017.82 1017.99 1018.07 1018.07 1018.02 1017.96 1017.95 1018.02 1018.17 1018.39 1018.64 1018.88 1019.03 1019.07 1018.94 1018.65 1018.22
1010.27 1010.90 1011.51 1012.03 1012.44 1012.72 1012.92 1013.08 1013.25 1013.47 1013.76 1014.10 1014.45 1014.79 1015.07 1015.28 1015.41 1015.48 1015.53 1015.60 1015.73 1015.94 1016.22 1016.57 1016.93 1017.26 1017.53 1017.70 1017.77 1017.76 1017.71 1017.66 1017.66 1017.74 1017.92 1018.18 1018.48 1018.78 1019.00 1019.09 1019.02 1018.76 1018.34
1010.13 1010.75 1011.36 1011.89 1012.30 1012.58 1012.78 1012.94 1013.10 1013.30 1013.55 1013.86 1014.19 1014.50 1014.77 1014.97 1015.10 1015.17 1015.23 1015.30 1015.43 1015.63 1015.91 1016.24 1016.60 1016.92 1017.18 1017.35 1017.42 1017.41 1017.36 1017.32 1017.33 1017.43 1017.64 1017.93 1018.27 1018.62 1018.89 1019.03 1019.00 1018.78 1018.38
1010.02 1010.62 1011.22 1011.74 1012.15 1012.46 1012.67 1012.84 1013.01 1013.21 1013.45 1013.74 1014.04 1014.33 1014.57 1014.75 1014.86 1014.93 1014.98 1015.05 1015.17 1015.37 1015.63 1015.95 1016.29 1016.60 1016.85 1017.01 1017.09 1017.09 1017.05 1017.02 1017.05 1017.16 1017.38 1017.68 1018.05 1018.41 1018.71 1018.89 1018.90 1018.72 1018.37
1009.89 1010.45 1011.02 1011.53 1011.95 1012.28 1012.54 1012.75 1012.96 1013.19 1013.45 1013.73 1014.01 1014.28 1014.49 1014.64 1014.74 1014.79 1014.83 1014.89 1015.00 1015.19 1015.44 1015.75 1016.07 1016.38 1016.62 1016.79 1016.87 1016.88 1016.85 1016.83 1016.86 1016.97 1017.18 1017.48 1017.84 1018.21 1018.52 1018.72 1018.76 1018.63 1018.33
1009.71 1010.21 1010.72 1011.21 1011.64 1012.01 1012.33 1012.61 1012.89 1013.18 1013.48 1013.79 1014.08 1014.32 1014.52 1014.64 1014.71 1014.75 1014.78 1014.83 1014.94 1015.12 1015.37 1015.67 1015.99 1016.29 1016.54 1016.71 1016.80 1016.81 1016.79 1016.77 1016.80 1016.90 1017.09 1017.36 1017.70 1018.04 1018.35 1018.56 1018.63 1018.54 1018.30
1009.45 1009.86 1010.31 1010.77 1011.21 1011.62 1012.02 1012.40 1012.78 1013.15 1013.52 1013.87 1014.18 1014.43 1014.61 1014.71 1014.76 1014.78 1014.80 1014.85 1014.96 1015.14 1015.40 1015.70 1016.03 1016.34 1016.59 1016.77 1016.87 1016.90 1016.88 1016.86 1016.87 1016.95 1017.10 1017.34 1017.63 1017.95 1018.23 1018.45 1018.54 1018.50 1018.32
1009.15 1009.45 1009.82 1010.22 1010.66 1011.12 1011.60 1012.09 1012.58 1013.06 1013.52 1013.93 1014.27 1014.53 1014.70 1014.80 1014.83 1014.83 1014.85 1014.90 1015.02 1015.21 1015.48 1015.80 1016.14 1016.46 1016.73 1016.93 1017.04 1017.09 1017.08 1017.05 1017.05 1017.09 1017.21 1017.40 1017.65 1017.93 1018.19 1018.40 1018.52 1018.53 1018.41
1008.85 1009.02 1009.29 1009.63 1010.06 1010.56 1011.11 1011.70 1012.31 1012.90 1013.45 1013.93 1014.31 1014.59 1014.77 1014.86 1014.88 1014.88 1014.89 1014.94 1015.07 1015.28 1015.57 1015.90 1016.26 1016.60 1016.89 1017.11 1017.25 1017.31 1017.31 1017.28 1017.27 1017.29 1017.38 1017.53 1017.74 1017.98 1018.23 1018.44 1018.58 1018.63 1018.58
1008.61 1008.65 1008.80 1009.08 1009.48 1010.00 1010.61 1011.29 1011.99 1012.68 1013.32 1013.86 1014.29 1014.60 1014.79 1014.87 1014.89 1014.89 1014.90 1014.96 1015.10 1015.32 1015.62 1015.97 1016.34 1016.70 1017.01 1017.26 1017.41 1017.50 1017.52 1017.51 1017.50 1017.51 1017.58 1017.70 1017.88 1018.10 1018.33 1018.54 1018.70 1018.79 1018.79
1008.50 1008.40 1008.44 1008.64 1009.01 1009.53 1010.17 1010.91 1011.69 1012.45 1013.15 1013.75 1014.23 1014.56 1014.76 1014.85 1014.88 1014.88 1014.89 1014.96 1015.10 1015.33 1015.63 1015.99 1016.37 1016.74 1017.07 1017.33 1017.51 1017.62 1017.67 1017.69 1017.69 1017.72 1017.78 1017.89 1018.05 1018.25 1018.47 1018.68 1018.86 1018.98 1019.03
1008.56 1008.35 1008.29 1008.41 1008.73 1009.22 1009.87 1010.63 1011.45 1012.25 1013.00 1013.63 1014.14 1014.50 1014.72 1014.83 1014.87 1014.88 1014.91 1014.98 1015.13 1015.36 1015.66 1016.01 1016.38 1016.75 1017.08 1017.36 1017.56 1017.70 1017.78 1017.83 1017.86 1017.90 1017.98 1018.09 1018.24 1018.43 1018.64 1018.85 1019.03 1019.17 1019.25
1008.82 1008.52 1008.38 1008.43 1008.68 1009.13 1009.75 1010.50 1011.31 1012.12 1012.87 1013.53 1014.05 1014.44 1014.69 1014.83 1014.90 1014.95 1015.00 1015.09 1015.24 1015.46 1015.75 1016.08 1016.44 1016.79 1017.11 1017.39 1017.60 1017.77 1017.88 1017.96 1018.02 1018.09 1018.18 1018.30 1018.45 1018.63 1018.82 1019.02 1019.20 1019.34 1019.43
1009.26 1008.92 1008.72 1008.70 1008.89 1009.28 1009.83 1010.52 1011.28 1012.06 1012.80 1013.45 1013.99 1014.40 1014.69 1014.88 1015.00 1015.09 1015.18 1015.31 1015.47 1015.70 1015.97 1016.28 1016.60 1016.93 1017.23 1017.49 1017.71 1017.88 1018.02 1018.13 1018.22 1018.31 1018.41 1018.53 1018.67 1018.83 1018.99 1019.16 1019.32 1019.45 1019.53
1009.86 1009.51 1009.28 1009.21 1009.33 1009.63 1010.09 1010.69 1011.37 1012.08 1012.76 1013.39 1013.93 1014.37 1014.71 1014.97 1015.16 1015.32 1015.48 1015.65 1015.85 1016.08 1016.34 1016.63 1016.92 1017.21 1017.47 1017.71 1017.92 1018.09 1018.23 1018.35 1018.46 1018.56 1018.66 1018.77 1018.89 1019.01 1019.14 1019.27 1019.39 1019.49 1019.55
1010.59 1010.25 1010.01 1009.89 1009.94 1010.14 1010.49 1010.96 1011.53 1012.14 1012.75 1013.34 1013.87 1014.34 1014.73 1015.07 1015.35 1015.61 1015.85 1016.09 1016.34 1016.60 1016.86 1017.13 1017.38 1017.63 1017.86 1018.06 1018.24 1018.39 1018.53 1018.64 1018.74 1018.84 1018.92 1019.01 1019.09 1019.17 1019.25 1019.32 1019.39 1019.45 1019.48
1011.36 1011.06 1010.83 1010.68 1010.65 1010.74 1010.97 1011.30 1011.73 1012.22 1012.75 1013.27 1013.79 1014.28 1014.73 1015.15 1015.54 1015.90 1016.24 1016.57 1016.88 1017.18 1017.46 1017.71 1017.94 1018.15 1018.33 1018.49 1018.63 1018.75 1018.86 1018.95 1019.03 1019.10 1019.16 1019.21 1019.24 1019.27 1019.29 1019.31 1019.32 1019.33 1019.33
1012.11 1011.87 1011.65 1011.48 1011.38 1011.38 1011.47 1011.67 1011.96 1012.32 1012.74 1013.20 1013.69 1014.19 1014.69 1015.19 1015.68 1016.15 1016.60 1017.02 1017.41 1017.75 1018.05 1018.31 1018.51 1018.68 1018.82 1018.93 1019.02 1019.10 1019.17 1019.22 1019.27 1019.30 1019.32 1019.33 1019.32 1019.29 1019.25 1019.21 1019.17 1019.13 1019.10
1012.74 1012.56 1012.38 1012.20 1012.06 1011.98 1011.97 1012.04 1012.20 1012.44 1012.76 1013.15 1013.60 1014.10 1014.64 1015.21 1015.78 1016.35 1016.89 1017.39 1017.85 1018.24 1018.56 1018.81 1019.00 1019.13 1019.22 1019.28 1019.32 1019.34 1019.36 1019.38 1019.38 1019.38 1019.36 1019.33 1019.28 1019.21 1019.13 1019.05 1018.96 1018.89 1018.82
Thickness
5818 5814 5808 5804 5797 5791 5785 5780 5775 5771 5767 5764 5760 5758 5758 5758 5757 5756 5754 5752 5752 5751 5750 5752 5750 5750 5750 5749 5749 5748 5746 5746 5747 5745 5744 5747 5750 5750 5748 5748 5747 5746 5743
5818 5812 5808 5804 5799 5793 5788 5783 5777 5773 5770 5767 5763 5761 5760 5760 5759 5758 5755 5754 5753 5752 5752 5750 5751 5751 5749 5748 5747 5746 5745 5746 5747 5743 5740 5739 5742 5745 5749 5747 5745 5744 5743
5822 5815 5810 5806 5802 5796 5791 5788 5781 5776 5772 5769 5766 5763 5760 5758 5759 5758 5757 5756 5754 5753 5751 5751 5751 5750 5750 5749 5747 5747 5744 5743 5745 5746 5741 5736 5734 5739 5744 5743 5743 5741 5740
5827 5821 5814 5809 5805 5800 5796 5790 5784 5778 5774 5771 5768 5764 5760 5758 5759 5759 5759 5756 5754 5753 5752 5751 5750 5750 5751 5749 5748 5750 5746 5743 5742 5743 5743 5742 5741 5734 5733 5738 5741 5739 5737
5832 5825 5819 5813 5809 5805 5799 5793 5786 5781 5777 5773 5769 5765 5763 5762 5762 5761 5758 5756 5756 5754 5753 5751 5750 5749 5750 5749 5748 5747 5745 5744 5743 5742 5742 5740 5739 5738 5731 5728 5732 5734 5735
5834 5828 5823 5817 5811 5807 5801 5796 5788 5782 5779 5775 5771 5767 5764 5762 5760 5758 5757 5756 5756 5754 5753 5752 5750 5750 5749 5748 5746 5745 5744 5744 5742 5742 5741 5739 5737 5735 5733 5729 5727 5727 5729
5835 5828 5822 5816 5811 5807 5802 5797 5790 5784 5780 5777 5773 5770 5767 5763 5760 5758 5757 5756 5756 5754 5753 5752 5750 5749 5748 5747 5746 5744 5744 5743 5741 5740 5741 5741 5739 5738 5735 5730 5727 5724 5725
5837 5830 5825 5819 5813 5808 5804 5798 5792 5786 5782 5778 5775 5772 5769 5766 5765 5761 5759 5757 5756 5756 5754 5751 5749 5748 5747 5746 5745 5744 5743 5742 5741 5741 5739 5739 5739 5737 5735 5731 5725 5720 5719
5837 5832 5827 5822 5816 5810 5805 5801 5794 5788 5784 5780 5776 5772 5769 5766 5765 5762 5759 5758 5755 5755 5753 5750 5748 5747 5745 5744 5743 5743 5741 5741 5741 5741 5739 5737 5738 5736 5734 5731 5727 5720 5714
5836 5832 5828 5823 5819 5813 5808 5803 5796 5790 5786 5782 5778 5775 5771 5768 5765 5762 5759 5756 5755 5753 5751 5749 5747 5745 5744 5743 5741 5741 5740 5738 5738 5737 5736 5734 5735 5733 5731 5728 5725 5722 5717
5837 5833 5829 5825 5820 5816 5809 5802 5796 5791 5787 5784 5780 5776 5772 5769 5765 5762 5759 5757 5755 5753 5750 5748 5746 5744 5742 5741 5739 5739 5737 5736 5735 5734 5733 5731 5730 5729 5728 5726 5724 5721 5717
5839 5835 5830 5825 5820 5815 5810 5804 5798 5793 5789 5785 5780 5776 5772 5769 5765 5762 5760 5757 5754 5752 5750 5747 5745 5743 5740 5738 5737 5736 5735 5733 5732 5731 5730 5728 5728 5725 5724 5722 5720 5718 5715
5836 5833 5828 5823 5819 5815 5811 5806 5801 5796 5791 5786 5781 5776 5772 5769 5765 5763 5760 5757 5754 5751 5749 5746 5743 5740 5738 5736 5734 5733 5732 5730 5729 5727 5726 5725 5723 5721 5719 5717 5716 5714 5711
5831 5829 5825 5821 5818 5815 5810 5805 5801 5797 5793 5788 5782 5776 5772 5769 5765 5762 5759 5755 5752 5749 5747 5744 5741 5738 5735 5733 5731 5729 5728 5726 5725 5724 5722 5721 5719 5716 5714 5713 5711 5708 5705
5826 5825 5823 5820 5816 5812 5808 5805 5801 5796 5792 5787 5781 5776 5773 5769 5765 5760 5757 5753 5750 5748 5744 5741 5738 5735 5733 5730 5727 5726 5725 5723 5721 5719 5718 5716 5713 5710 5709 5709 5706 5703 5700
5823 5823 5821 5818 5814 5810 5807 5803 5798 5794 5790 5785 5780 5776 5771 5767 5763 5759 5754 5750 5747 5744 5741 5738 5735 5732 5729 5722 5719 5719 5720 5718 5715 5713 5711 5710 5707 5704 5701 5700 5698 5697 5695
5821 5820 5818 5816 5814 5810 5807 5801 5798 5794 5788 5783 5779 5774 5769 5764 5760 5758 5752 5747 5743 5740 5737 5734 5731 5727 5721 5716 5714 5713 5714 5713 5710 5707 5705 5705 5702 5699 5697 5693 5691 5689 5686
5818 5818 5817 5815 5814 5811 5807 5803 5798 5792 5786 5780 5775 5771 5766 5761 5757 5753 5749 5744 5740 5736 5733 5729 5726 5722 5716 5711 5708 5707 5708 5707 5703 5701 5699 5697 5694 5692 5689 5688 5686 5683 5680
5815 5816 5816 5815 5812 5808 5804 5799 5793 5788 5782 5777 5773 5768 5764 5758 5753 5748 5744 5739 5735 5732 5729 5725 5721 5717 5711 5705 5703 5702 5704 5700 5697 5695 5692 5690 5687 5681 5680 5681 5679 5675 5672
5809 5810 5811 5811 5806 5803 5800 5794 5789 5784 5778 5774 5770 5765 5760 5755 5749 5745 5740 5736 5732 5728 5724 5721 5717 5713 5708 5700 5698 5696 5700 5696 5692 5688 5685 5679 5677 5673 5672 5673 5671 5668 5665
5800 5802 5802 5801 5798 5796 5791 5786 5783 5778 5775 5771 5765 5760 5755 5750 5746 5741 5736 5732 5728 5723 5719 5715 5711 5707 5702 5696 5692 5689 5692 5691 5688 5684 5681 5675 5667 5665 5663 5663 5663 5659 5656
5789 5790 5789 5788 5788 5786 5781 5776 5773 5772 5769 5764 5759 5753 5749 5745 5740 5734 5730 5726 5722 5717 5712 5707 5704 5701 5697 5691 5686 5683 5681 5680 5680 5677 5674 5667 5659 5656 5654 5653 5650 5648 5646
5775 5777 5776 5775 5774 5774 5771 5766 5765 5763 5759 5755 5749 5745 5741 5738 5734 5729 5724 5720 5715 5712 5708 5703 5700 5696 5692 5685 5679 5675 5672 5669 5669 5667 5659 5655 5651 5648 5646 5642 5640 5639 5640
5762 5763 5763 5761 5760 5761 5760 5758 5755 5753 5749 5745 5741 5737 5733 5729 5724 5721 5719 5715 5710 5706 5702 5698 5694 5690 5686 5681 5675 5671 5666 5661 5659 5656 5650 5645 5642 5640 5637 5634 5633 5632 5631
5748 5750 5750 5749 5748 5749 5748 5747 5745 5742 5738 5735 5731 5728 5725 5720 5715 5711 5707 5704 5700 5698 5694 5691 5688 5683 5679 5671 5665 5664 5662 5658 5654 5649 5646 5643 5640 5637 5635 5631 5628 5625 5622
5735 5735 5736 5735 5736 5736 5735 5735 5734 5732 5728 5724 5722 5720 5716 5711 5707 5702 5695 5688 5686 5682 5679 5676 5674 5671 5665 5659 5655 5651 5648 5645 5641 5640 5640 5637 5634 5631 5629 5625 5621 5617 5614